Weather History for Morgantown, WV

Change the Weather History Date:

Wednesday, December 31, 2008

  Actual Average Record
Temperature  
Mean Temperature 36 °F 32 °F  
Max Temperature 51 °F 39 °F 71 °F (1972)
Min Temperature 20 °F 24 °F 3 °F (1983)
Degree Days  
Heating Degree Days 29 33  
Month to date heating degree days 877 937  
Since 1 July heating degree days 1981 1984  
Cooling Degree Days 0 0  
Month to date cooling degree days 0 0  
Year to date cooling degree days 738 814  
Moisture  
Dew Point 20 °F    
Average Humidity 57    
Maximum Humidity 85    
Minimum Humidity 28    
Precipitation  
Precipitation 0.08 in 0.08 in 0.53 in (1970)
Month to date precipitation 5.54 2.91  
Year to date precipitation 46.18 41.83  
Snow  
Snow 0.00 in - - ()
Month to date snowfall 0.0  
Snow Depth 0.00 in    
Sea Level Pressure  
Sea Level Pressure 29.96 in    
Wind  
Wind Speed 9 mph (WNW)    
Max Wind Speed 28 mph    
Max Gust Speed 41 mph    
Visibility 4 miles    
Events Fog , Snow , Thunderstorm    
T = Trace of Precipitation, MM = Missing Value Source: NWS Daily Summary

Daily Weather History Graph

Daily Weather History Graph

Search for Another Location

Airport:

Trip Planner

Search our weather history database for the weather conditions in past years. The results will help you decide how hot, cold, wet, or windy it might be!

Date:

Astronomy

Dec. 31, 2008 Rise Set
Actual Time 7:40 AM EST 5:05 PM EST
Civil Twilight 7:10 AM EST 5:35 PM EST
Nautical Twilight 6:36 AM EST 6:09 PM EST
Astronomical Twilight 6:03 AM EST 6:42 PM EST
Moon 10:06 AM EST (12/31) 9:12 PM EST (12/31)
Length of Visible Light 10h 25m
Length of Day
9h 25m
Waxing Crescent, 15% of the Moon is Illuminated
Dec 31
Waxing Crescent
Jan 4
First Quarter
Jan 10
Full
Jan 17
Last Quarter
Jan 26
New

Hourly Weather History & Observations

Time (EST) Temp. Windchill Dew Point Humidity Pressure Visibility Wind Dir Wind Speed Gust Speed Precip Events Conditions
12:53 AM 51.1 °F - 21.9 °F 32% 29.57 in 10.0 mi SW 13.8 mph 26.5 mph N/A   Clear
1:53 AM 50.0 °F - 24.1 °F 36% 29.56 in 10.0 mi SW 12.7 mph 20.7 mph N/A   Scattered Clouds
2:53 AM 50.0 °F - 26.1 °F 39% 29.56 in 10.0 mi SW 10.4 mph 20.7 mph N/A   Overcast
3:53 AM 48.0 °F - 27.0 °F 44% 29.55 in 10.0 mi West 9.2 mph 17.3 mph N/A   Overcast
4:53 AM 44.1 °F 38.1 °F 28.0 °F 53% 29.57 in 10.0 mi West 11.5 mph 18.4 mph N/A   Overcast
5:53 AM 39.9 °F 31.4 °F 19.9 °F 45% 29.66 in 10.0 mi WNW 16.1 mph 33.4 mph N/A   Overcast
6:53 AM 36.0 °F 26.7 °F 26.1 °F 67% 29.70 in 6.0 mi West 15.0 mph 25.3 mph 0.00 in   Overcast
7:03 AM 35.6 °F 26.2 °F 28.4 °F 75% 29.70 in 2.5 mi West 15.0 mph 29.9 mph 0.00 in Snow Light Snow
7:05 AM 33.8 °F 23.9 °F 28.4 °F 81% 29.70 in 1.5 mi West 15.0 mph 29.9 mph 0.00 in Snow , Thunderstorm Light Thunderstorms and Snow
7:13 AM 32.0 °F 22.1 °F 30.2 °F 93% 29.72 in 0.5 mi WNW 13.8 mph 29.9 mph 0.02 in Fog , Snow , Thunderstorm Thunderstorms and Snow
7:20 AM 32.0 °F 22.1 °F 30.2 °F 93% 29.73 in 0.5 mi WNW 13.8 mph 29.9 mph 0.03 in Fog , Snow Snow
7:28 AM 32.0 °F 22.1 °F 28.4 °F 87% 29.74 in 1.0 mi WNW 13.8 mph 29.9 mph 0.03 in Snow Light Snow
7:31 AM 32.0 °F 22.1 °F 28.4 °F 87% 29.75 in 2.0 mi WNW 13.8 mph 29.9 mph 0.03 in Snow Light Snow
7:39 AM 32.0 °F 22.1 °F 26.6 °F 80% 29.76 in 6.0 mi WNW 13.8 mph 29.9 mph 0.03 in Snow Light Snow
7:53 AM 30.9 °F 22.2 °F 25.0 °F 79% 29.81 in 2.5 mi WNW 10.4 mph 27.6 mph 0.03 in Snow Light Snow
7:56 AM 30.2 °F 21.9 °F 26.6 °F 86% 29.78 in 0.8 mi WNW 9.2 mph 27.6 mph 0.00 in Snow Light Snow
8:07 AM 30.2 °F 22.6 °F 28.4 °F 93% 29.79 in 0.2 mi WNW 8.1 mph 16.1 mph 0.00 in Fog , Snow Light Snow
8:10 AM 30.2 °F 21.3 °F 28.4 °F 93% 29.79 in 0.2 mi WNW 10.4 mph 20.7 mph 0.00 in Fog , Snow Light Snow
8:22 AM 28.4 °F 18.0 °F 26.6 °F 93% 29.81 in 0.2 mi WNW 12.7 mph 29.9 mph 0.01 in Fog , Snow Light Snow
8:25 AM 28.4 °F 18.5 °F 26.6 °F 93% 29.81 in 0.5 mi WNW 11.5 mph 29.9 mph 0.01 in Fog , Snow Light Snow
8:53 AM 28.0 °F 17.5 °F 24.1 °F 85% 29.87 in 1.0 mi WNW 12.7 mph 31.1 mph 0.01 in Snow Light Snow
9:43 AM 28.4 °F 19.1 °F 21.2 °F 74% 29.90 in 3.0 mi NW 10.4 mph 21.9 mph 0.00 in Snow Light Snow
9:53 AM 28.0 °F 18.6 °F 21.0 °F 75% 29.94 in 9.0 mi NW 10.4 mph 20.7 mph 0.00 in Snow Light Snow
10:03 AM 28.4 °F 17.0 °F 19.4 °F 69% 29.92 in 2.0 mi NW 15.0 mph 26.5 mph 0.00 in Snow Light Snow
10:06 AM 26.6 °F 12.7 °F 21.2 °F 80% 29.94 in 0.2 mi NNW 20.7 mph 35.7 mph 0.00 in Snow Light Snow
10:18 AM 24.8 °F 16.1 °F 21.2 °F 86% 29.94 in 6.0 mi NW 8.1 mph 23.0 mph 0.01 in Snow Light Snow
10:31 AM 26.6 °F 16.8 °F 19.4 °F 74% 29.95 in 6.0 mi NW 10.4 mph 21.9 mph 0.01 in   Haze
10:53 AM 26.1 °F 16.2 °F 21.9 °F 84% 29.99 in 6.0 mi NW 10.4 mph 21.9 mph 0.01 in Snow Light Snow
10:55 AM 26.6 °F 20.0 °F 21.2 °F 80% 29.96 in 0.2 mi NW 5.8 mph - 0.00 in Fog , Snow Snow
11:00 AM 26.6 °F 19.1 °F 23.0 °F 86% 29.96 in 0.5 mi Variable 6.9 mph - 0.01 in Fog , Snow Light Snow
11:06 AM 26.6 °F 18.2 °F 23.0 °F 86% 29.96 in 1.0 mi NW 8.1 mph - 0.01 in Snow Light Snow
11:12 AM 26.6 °F 21.2 °F 23.0 °F 86% 29.96 in 2.5 mi NW 4.6 mph - 0.01 in Snow Light Snow
11:19 AM 28.4 °F 21.2 °F 21.2 °F 74% 29.96 in 7.0 mi Variable 6.9 mph - 0.01 in   Overcast
11:30 AM 26.6 °F 16.8 °F 19.4 °F 74% 29.97 in 1.8 mi NW 10.4 mph 25.3 mph 0.01 in Snow Light Snow
11:40 AM 24.8 °F 14.0 °F 21.2 °F 86% 29.98 in 0.5 mi NNW 11.5 mph 24.2 mph 0.01 in Fog , Snow Light Snow
11:53 AM 26.1 °F 16.2 °F 21.0 °F 81% 30.01 in 5.0 mi NW 10.4 mph 20.7 mph 0.01 in Snow Light Snow
11:55 AM 26.6 °F 18.2 °F 21.2 °F 80% 29.98 in 2.5 mi NW 8.1 mph 20.7 mph 0.00 in Snow Light Snow
11:59 AM 26.6 °F 15.7 °F 21.2 °F 80% 29.99 in 0.8 mi NW 12.7 mph 24.2 mph 0.00 in Snow Light Snow
12:11 PM 26.6 °F 15.7 °F 21.2 °F 80% 29.99 in 1.0 mi NW 12.7 mph 24.2 mph 0.00 in Snow Light Snow
12:40 PM 26.6 °F 15.7 °F 19.4 °F 74% 30.00 in 1.5 mi NW 12.7 mph 24.2 mph 0.00 in Snow Light Snow
12:45 PM 24.8 °F 13.4 °F 21.2 °F 86% 30.01 in 0.2 mi NW 12.7 mph 24.2 mph 0.00 in Fog , Snow Light Snow
12:53 PM 24.1 °F 12.5 °F 21.0 °F 88% 30.04 in 0.2 mi NW 12.7 mph 24.2 mph 0.01 in Fog , Snow Light Snow
12:59 PM 24.8 °F 15.3 °F 19.4 °F 80% 30.01 in 6.0 mi WNW 9.2 mph 19.6 mph 0.00 in Snow Light Snow
1:02 PM 26.6 °F 17.5 °F 19.4 °F 74% 30.01 in 6.0 mi WNW 9.2 mph 19.6 mph 0.00 in Snow Light Snow
1:11 PM 26.6 °F 18.2 °F 17.6 °F 69% 30.02 in 6.0 mi NW 8.1 mph 18.4 mph 0.00 in   Haze
1:53 PM 26.1 °F 17.6 °F 15.1 °F 63% 30.06 in 6.0 mi NW 8.1 mph 20.7 mph 0.00 in   Haze
1:58 PM 24.8 °F 13.4 °F 17.6 °F 74% 30.04 in 1.5 mi NW 12.7 mph 20.7 mph 0.00 in Snow Light Snow
2:01 PM 24.8 °F 14.6 °F 17.6 °F 74% 30.04 in 0.8 mi NNW 10.4 mph 20.7 mph 0.00 in Snow Light Snow
2:15 PM 24.8 °F 15.3 °F 17.6 °F 74% 30.06 in 1.5 mi NW 9.2 mph 18.4 mph 0.00 in Snow Light Snow
2:22 PM 24.8 °F 16.1 °F 15.8 °F 69% 30.06 in 4.0 mi NW 8.1 mph 18.4 mph 0.00 in Snow Light Snow
2:39 PM 23.0 °F 13.9 °F 15.8 °F 74% 30.08 in 2.0 mi NW 8.1 mph 18.4 mph 0.00 in Snow Light Snow
2:48 PM 24.8 °F 15.3 °F 14.0 °F 64% 30.08 in 9.0 mi WNW 9.2 mph 16.1 mph 0.00 in   Overcast
2:53 PM 24.1 °F 15.2 °F 14.0 °F 65% 30.12 in 9.0 mi NW 8.1 mph 16.1 mph 0.00 in Snow Light Snow
3:02 PM 24.8 °F 16.1 °F 14.0 °F 64% 30.10 in 9.0 mi WNW 8.1 mph - 0.00 in Snow Light Snow
3:17 PM 21.2 °F 10.1 °F 17.6 °F 86% 30.12 in 2.5 mi NNW 10.4 mph 19.6 mph 0.00 in Snow Light Snow
3:21 PM 21.2 °F 8.9 °F 17.6 °F 86% 30.12 in 1.8 mi NNW 12.7 mph 19.6 mph 0.00 in Snow Light Snow
3:24 PM 21.2 °F 10.1 °F 17.6 °F 86% 30.12 in 0.8 mi NNW 10.4 mph 19.6 mph 0.00 in Snow Light Snow
3:29 PM 21.2 °F 9.5 °F 17.6 °F 86% 30.13 in 0.2 mi NW 11.5 mph 18.4 mph 0.00 in Fog , Snow Light Snow
3:35 PM 21.2 °F 11.7 °F 17.6 °F 86% 30.13 in 0.5 mi NW 8.1 mph 18.4 mph 0.00 in Fog , Snow Light Snow
3:45 PM 21.2 °F 10.1 °F 15.8 °F 80% 30.14 in 0.8 mi WNW 10.4 mph 20.7 mph 0.00 in Snow Light Snow
3:53 PM 21.0 °F 12.4 °F 17.1 °F 85% 30.18 in 0.2 mi Variable 6.9 mph 17.3 mph 0.00 in Fog , Snow Light Snow
4:00 PM 21.2 °F 10.9 °F 17.6 °F 86% 30.15 in 0.8 mi NW 9.2 mph - 0.00 in Snow Light Snow
4:07 PM 21.2 °F 12.6 °F 17.6 °F 86% 30.16 in 0.2 mi NW 6.9 mph 19.6 mph 0.00 in Fog , Snow Light Snow
4:13 PM 21.2 °F 14.9 °F 17.6 °F 86% 30.16 in 0.5 mi Variable 4.6 mph - 0.00 in Fog , Snow Light Snow
4:17 PM 19.4 °F 8.6 °F 17.6 °F 93% 30.17 in 7.0 mi WNW 9.2 mph - 0.00 in Snow Light Snow
4:22 PM 21.2 °F 13.6 °F 15.8 °F 80% 30.17 in 7.0 mi NW 5.8 mph - 0.01 in Snow Light Snow
4:53 PM 21.0 °F 10.6 °F 9.0 °F 60% 30.22 in 9.0 mi WNW 9.2 mph 19.6 mph 0.01 in   Overcast
6:53 PM 19.9 °F 13.4 °F 8.1 °F 60% 30.29 in 10.0 mi NW 4.6 mph - N/A   Overcast
9:53 PM 19.9 °F 13.4 °F 5.0 °F 52% 30.34 in 10.0 mi Variable 4.6 mph - N/A   Overcast
10:53 PM 19.9 °F 13.4 °F 6.1 °F 55% 30.34 in 10.0 mi West 4.6 mph - N/A   Overcast
11:53 PM 19.9 °F 12.1 °F 7.0 °F 57% 30.33 in 10.0 mi West 5.8 mph - N/A   Overcast